Вернуться в каталог

AISHENXING LSP 1

АктивенНаукаSSO
NORAD 60014·PAYLOAD·🇨🇳 China
Это название спутника еще не подтверждено официальными источниками.

Запущен Jun 6, 2024 с Jiuquan Satellite Launch Center

Loading…

Ближайшие Пролёты (ближайшие 24 часа)

TLE

УстаревшееSource: Space-Track

Эпоха: Aug 24, 2026, 07:03 UTC

1 60014U 24110C   26236.29396498  .00001738  00000-0  15034-3 0  9993
2 60014  97.5420 309.3147 0009309 280.0498  79.9675 14.98408334112000

Отслеживайте AISHENXING LSP 1 в реальном времени с AllMySat

Download on the App Store